Moriarty, NM

3:06 PM MST on December 14, 2017 (GMT -0700)
Moriarty

Weather History for K0E0 - November, 2012

Change the Weather History Date:

Wednesday, November 7, 2012

  Actual Average (KABQ) Record (KABQ)
Temperature  
Mean Temperature 48 °F -  
Max Temperature 74 °F 60 °F 75 °F (1980)
Min Temperature 22 °F 34 °F 19 °F (1943)
Degree Days  
Heating Degree Days 17    
Moisture  
Dew Point 12 °F    
Average Humidity 30    
Maximum Humidity 55    
Minimum Humidity 9    
Precipitation  
Precipitation 0.00 in - - ()
Sea Level Pressure  
Sea Level Pressure 30.22 in    
Wind  
Wind Speed 4 mph (WNW)    
Max Wind Speed 18 mph    
Max Gust Speed 22 mph    
Visibility 10 miles    
Events      
Averages and records for this station are not official NWS values.
T = Trace of Precipitation, MM = Missing Value Source: NWS Daily Summary

Daily Weather History Graph

Daily Weather History Graph

Search for Another Location

Airport or City:

Trip Planner

Search our weather history database for the weather conditions in past years. The results will help you decide how hot, cold, wet, or windy it might be!

Date:

Astronomy

Nov. 07, 2012 Rise Set
Actual Time 6:31 AM MST 5:03 PM MST
Civil Twilight 6:04 AM MST 5:30 PM MST
Nautical Twilight 5:34 AM MST 6:00 PM MST
Astronomical Twilight 5:04 AM MST 6:30 PM MST
Moon No Moon Rise 1:00 PM MST (11/7)
Length of Visible Light 11h 25m
Length of Day
10h 32m
Last Quarter, 42% of the Moon is Illuminated
Nov 7
Last Quarter
Nov 13
New
Nov 20
First Quarter
Nov 28
Full
Dec 6
Last Quarter

Hourly Weather History & Observations

Time (MST) Temp. Windchill Dew Point Humidity Pressure Visibility Wind Dir Wind Speed Gust Speed Precip Events Conditions
12:15 AM 30.2 °F 26.7 °F 11.3 °F 45% 30.32 in 10.0 mi North 3.5 mph - N/A   Clear
12:35 AM 30.6 °F 24.7 °F 10.0 °F 42% 30.32 in 10.0 mi North 5.8 mph - N/A   Clear
12:55 AM 29.3 °F 24.3 °F 9.9 °F 44% 30.31 in 10.0 mi ENE 4.6 mph - N/A   Clear
1:15 AM 29.7 °F 24.7 °F 10.2 °F 44% 30.31 in 10.0 mi North 4.6 mph - N/A   Clear
1:55 AM 27.7 °F 23.8 °F 10.0 °F 48% 30.31 in 10.0 mi NNE 3.5 mph - N/A   Clear
2:15 AM 28.4 °F - 10.4 °F 47% 30.31 in 10.0 mi Calm Calm - N/A   Clear
2:35 AM 26.8 °F - 10.0 °F 49% 30.31 in 10.0 mi Calm Calm - N/A   Clear
2:55 AM 27.7 °F - 10.4 °F 48% 30.30 in 10.0 mi Calm Calm - N/A   Clear
3:15 AM 27.7 °F - 10.4 °F 48% 30.30 in 10.0 mi Calm Calm - N/A   Clear
3:35 AM 28.8 °F - 12.0 °F 50% 30.30 in 10.0 mi Calm Calm - N/A   Clear
3:55 AM 23.5 °F 19.1 °F 6.1 °F 47% 30.29 in 10.0 mi NNE 3.5 mph - N/A   Clear
4:15 AM 23.0 °F 17.0 °F 7.2 °F 51% 30.29 in 10.0 mi NNE 4.6 mph - N/A   Clear
4:35 AM 22.8 °F 15.5 °F 8.1 °F 53% 30.29 in 10.0 mi NNE 5.8 mph - N/A   Clear
4:55 AM 22.8 °F 16.7 °F 8.2 °F 54% 30.29 in 10.0 mi NNE 4.6 mph - N/A   Clear
5:15 AM 22.8 °F 18.2 °F 7.9 °F 53% 30.29 in 10.0 mi NNE 3.5 mph - N/A   Clear
5:35 AM 22.3 °F 16.1 °F 7.2 °F 52% 30.29 in 10.0 mi North 4.6 mph - N/A   Clear
5:55 AM 22.8 °F 18.2 °F 8.1 °F 53% 30.30 in 10.0 mi SSE 3.5 mph - N/A   Clear
6:15 AM 25.0 °F - 10.2 °F 54% 30.30 in 10.0 mi Calm Calm - N/A   Clear
6:35 AM 22.8 °F - 8.2 °F 54% 30.31 in 10.0 mi Calm Calm - N/A   Clear
6:55 AM 22.5 °F 16.3 °F 8.4 °F 55% 30.31 in 10.0 mi NNW 4.6 mph - N/A   Clear
7:15 AM 27.0 °F 23.0 °F 10.0 °F 49% 30.31 in 10.0 mi NNW 3.5 mph - N/A   Clear
7:35 AM 30.7 °F - 11.8 °F 46% 30.31 in 10.0 mi Calm Calm - N/A   Clear
7:55 AM 34.3 °F - 14.0 °F 43% 30.31 in 10.0 mi Calm Calm - N/A   Clear
8:15 AM 37.0 °F - 14.4 °F 40% 30.31 in 10.0 mi Calm Calm - N/A   Clear
8:35 AM 40.6 °F - 15.8 °F 37% 30.31 in 10.0 mi Calm Calm - N/A   Clear
9:15 AM 48.0 °F - 18.7 °F 31% 30.30 in 10.0 mi Calm Calm - N/A   Clear
9:35 AM 50.9 °F - 19.4 °F 29% 30.30 in 10.0 mi Calm Calm - N/A   Clear
9:55 AM 53.1 °F - 19.6 °F 27% 30.29 in 10.0 mi SE 3.5 mph - N/A   Clear
10:15 AM 55.0 °F - 19.6 °F 25% 30.29 in 10.0 mi Calm Calm - N/A   Clear
10:35 AM 58.1 °F - 20.3 °F 23% 30.28 in 10.0 mi Calm Calm - N/A   Clear
10:55 AM 61.0 °F - 20.7 °F 21% 30.26 in 10.0 mi Calm Calm - N/A   Clear
11:15 AM 64.0 °F - 20.8 °F 19% 30.25 in 10.0 mi Calm Calm - N/A   Clear
11:35 AM 66.7 °F - 20.3 °F 17% 30.23 in 10.0 mi Calm Calm - N/A   Clear
11:55 AM 69.4 °F - 20.3 °F 16% 30.22 in 10.0 mi SSW 3.5 mph - N/A   Clear
12:15 PM 70.9 °F - 20.3 °F 15% 30.20 in 10.0 mi SSW 4.6 mph - N/A   Clear
12:35 PM 73.0 °F - 19.0 °F 13% 30.19 in 10.0 mi WNW 11.5 mph 18.4 mph N/A   Clear
12:55 PM 74.5 °F - 12.0 °F 9% 30.18 in 10.0 mi WNW 13.8 mph 17.3 mph N/A   Clear
1:15 PM 74.1 °F - 12.0 °F 9% 30.17 in 10.0 mi WNW 13.8 mph 19.6 mph N/A   Clear
1:35 PM 74.1 °F - 13.1 °F 10% 30.17 in 10.0 mi WNW 11.5 mph 17.3 mph N/A   Clear
1:55 PM 73.9 °F - 11.3 °F 9% 30.16 in 10.0 mi West 11.5 mph 20.7 mph N/A   Clear
2:15 PM 73.8 °F - 11.7 °F 9% 30.16 in 10.0 mi West 15.0 mph 20.7 mph N/A   Clear
2:35 PM 73.4 °F - 10.6 °F 9% 30.16 in 10.0 mi West 17.3 mph 21.9 mph N/A   Clear
2:55 PM 72.9 °F - 11.3 °F 9% 30.15 in 10.0 mi West 18.4 mph 21.9 mph N/A   Clear
3:15 PM 72.3 °F - 11.3 °F 10% 30.15 in 10.0 mi West 13.8 mph - N/A   Clear
3:35 PM 71.8 °F - 11.7 °F 10% 30.15 in 10.0 mi West 11.5 mph - N/A   Clear
3:55 PM 71.2 °F - 11.3 °F 10% 30.15 in 10.0 mi West 11.5 mph - N/A   Clear
4:15 PM 70.0 °F - 11.3 °F 10% 30.15 in 10.0 mi West 9.2 mph - N/A   Clear
4:35 PM 68.4 °F - 11.1 °F 11% 30.14 in 10.0 mi West 6.9 mph - N/A   Clear
4:55 PM 64.8 °F - 10.9 °F 12% 30.14 in 10.0 mi West 6.9 mph - N/A   Clear
5:15 PM 60.4 °F - 10.9 °F 14% 30.14 in 10.0 mi West 8.1 mph - N/A   Clear
5:35 PM 57.2 °F - 10.4 °F 16% 30.14 in 10.0 mi West 10.4 mph - N/A   Clear
5:55 PM 55.9 °F - 10.2 °F 16% 30.15 in 10.0 mi WSW 10.4 mph - N/A   Clear
6:15 PM 51.4 °F - 10.4 °F 19% 30.16 in 10.0 mi West 8.1 mph - N/A   Clear
6:35 PM 53.4 °F - 12.2 °F 19% 30.16 in 10.0 mi West 10.4 mph - N/A   Clear
6:55 PM 53.8 °F - 12.7 °F 20% 30.16 in 10.0 mi West 10.4 mph - N/A   Clear
7:15 PM 52.0 °F - 13.5 °F 22% 30.16 in 10.0 mi West 10.4 mph - N/A   Clear
7:35 PM 49.3 °F - 12.7 °F 23% 30.16 in 10.0 mi West 10.4 mph - N/A   Clear
7:55 PM 49.3 °F - 12.9 °F 23% 30.16 in 10.0 mi WSW 10.4 mph - N/A   Clear
8:15 PM 53.2 °F - 14.2 °F 21% 30.16 in 7.0 mi WSW 11.5 mph - N/A   Scattered Clouds
8:35 PM 52.7 °F - 13.5 °F 21% 30.16 in 10.0 mi West 10.4 mph - N/A   Scattered Clouds
8:55 PM 45.0 °F 42.6 °F 12.4 °F 27% 30.17 in 10.0 mi SW 4.6 mph - N/A   Clear
9:15 PM 43.3 °F - 11.5 °F 27% 30.17 in 10.0 mi Calm Calm - N/A   Clear
9:35 PM 39.9 °F 36.7 °F 10.4 °F 30% 30.17 in 10.0 mi ENE 4.6 mph - N/A   Clear
9:55 PM 37.4 °F - 9.9 °F 32% 30.16 in 10.0 mi Calm Calm - N/A   Clear
10:15 PM 37.9 °F 35.5 °F 10.2 °F 32% 30.16 in 10.0 mi SE 3.5 mph - N/A   Clear
10:35 PM 38.5 °F - 10.2 °F 31% 30.16 in 10.0 mi Calm Calm - N/A   Clear
10:55 PM 32.5 °F - 7.0 °F 34% 30.15 in 10.0 mi Calm Calm - N/A   Clear
11:15 PM 31.1 °F 27.7 °F 5.7 °F 34% 30.15 in 10.0 mi North 3.5 mph - N/A   Clear
11:35 PM 32.9 °F - 7.2 °F 34% 30.15 in 10.0 mi Calm Calm - N/A   Clear
11:55 PM 32.0 °F - 6.4 °F 34% 30.15 in 10.0 mi Calm Calm - N/A   Clear